SKYSAT C13

导读 | 星芒AI

SKYSAT C13 是 Skybox Imaging(现为 Planet Labs 旗下)发射的一颗高分辨率商业地球观测卫星,属于 SKYSAT 系列。该卫星具备亚米级光学成像能力,主要用于提供高清晰度的地球表面图像,服务于农业、城市规划、灾害监测等多个领域。SKYSAT C13 采用先进的遥感技术,支持快速重访和灵活的任务调度,提升了实时数据获取能力。作为小型卫星的一部分,它在推动遥感数据的商业化和可访问性方面发挥了重要作用。

基本信息
目录编号:
43802
目录名称:
SKYSAT C13
国际标识:
2018-099AW
轨道中心:
EARTH
卫星名称:
SKYSAT C13
卫星全名:
--
卫星状态:
在轨 (已飞行2522 天)
发射日期:
2018-12-03 UTC
国别 :
美国 (US)
星等 :
--
轨道信息
数据来源 国际轨道数据
星历时间: 2025-10-29T17:36:52+0800
7小时前
查看轨道信息
半长轴: 6766.695km
偏心率: 0.0006285
轨道倾角: 96.968°
近地点辐角 24.773°
升交点赤经 346.307°
平近点角 335.383°
近地点: 384.307km
远地点: 392.813km
周期: 92.326分钟
每日圈数: 15.596888
详细信息
使用方式:
暂无
2D轨道图
3D轨道图
轨道高度分析图
轨道倾角分析图
轨道综合分析图
查看轨道综合分析图